Regional Weather Roundup
Issued by NWS

Home | Current Version | Previous Version | Graphics & Text | Print | Product List | Glossary On
Versions: 1 2 3 4 5 6 7 8 9 10 11 12 13 14 15 16 17 18 19 20 21 22 23 24 25 26 27 28 29 30 31 32 33 34 35 36 37 38 39 40 41 42 43 44 45 46 47 48 49 50
000
ASUS43 KBIS 221602
RWRND

NORTH DAKOTA REGIONAL WEATHER ROUNDUP
NATIONAL WEATHER SERVICE BISMARCK ND
1000 AM CST WED NOV 22 2017

NOTE: "FAIR" INDICATES FEW OR NO CLOUDS BELOW 12,000 FEET WITH NO
SIGNIFICANT WEATHER AND/OR OBSTRUCTIONS TO VISIBILITY.


NDZ001>003-009>011-017-221700-
NORTHWEST NORTH DAKOTA

CITY           SKY/WX    TMP DP  RH WIND       PRES   REMARKS
WILLISTON      CLOUDY    31  21  66 CALM      29.84R
MINOT          CLOUDY    29  19  66 S8        29.81F
MINOT AFB      CLOUDY    27  17  67 SE5       29.81F
$$

NDZ018>021-031>035-040>046-221700-
SOUTHWEST NORTH DAKOTA

CITY           SKY/WX    TMP DP  RH WIND       PRES   REMARKS
BISMARCK       CLOUDY    32  19  58 S5        29.93F
DICKINSON      CLOUDY    46  31  55 W16       29.84S
GARRISON         N/A     28  21  75 S13       29.84F WCI  17
HETTINGER ARPT CLOUDY    43  25  49 W12       29.93F
$$

NDZ004>008-012>016-024-026-027-054-221700-
NORTHEAST NORTH DAKOTA

CITY           SKY/WX    TMP DP  RH WIND       PRES   REMARKS
GRAND FORKS    LGT SNOW  19  13  77 S16       30.06F WCI   4
GRND FRKS AFB  FLURRIES  19  11  71 S14       30.04F WCI   5
DEVILS LAKE    FLURRIES  21  14  74 S15       29.93F WCI   8
$$

NDZ022-023-025-028>030-036>039-047>053-221700-
SOUTHEAST NORTH DAKOTA

CITY           SKY/WX    TMP DP  RH WIND       PRES   REMARKS
FARGO          CLOUDY    20  11  68 S13       30.10F WCI   7
JAMESTOWN      CLOUDY    22  12  65 S18       29.97F WCI   7
$$




USA.gov is the U.S. government's official web portal to all federal, state and local government web resources and services.